Location: Carri�res
(48.9069°N, 2.1792°E)
Time: 22:39:15
(UTC+00:00)

Cosmos 158 Rocket - Visible Passes

Search period start: 05 May 2021 00:00
Search period end: 15 May 2021 00:00
Orbit: 699 x 792 km, 74.0° (Epoch: 05 May)

Date Brightness Start Highest point End Pass type
(mag) Time Alt. Az. Time Alt. Az. Time Alt. Az.
05 May 5.8 20:58:07 10° N 21:01:22 17° NE 21:04:30 10° E visible
05 May 3.7 22:38:44 10° NNW 22:43:38 84° WSW 22:44:17 67° S visible
06 May 6.1 00:22:49 10° WNW 00:24:05 11° W 00:24:05 11° W visible
06 May 6.2 20:15:50 10° NNE 20:17:05 11° NE 20:18:20 10° NE visible
06 May 4.2 21:55:05 10° NNW 21:59:53 53° ENE 22:01:24 38° ESE visible
06 May 5.4 23:37:22 10° NW 23:41:05 22° W 23:41:11 22° W visible
07 May 5.1 21:11:39 10° N 21:15:58 30° NE 21:18:31 19° ESE visible
07 May 4.5 22:53:05 10° NW 22:57:40 41° WSW 22:58:19 39° SW visible
08 May 5.7 20:28:28 10° N 20:31:54 19° NE 20:35:18 10° E visible
08 May 3.8 22:09:11 10° NNW 22:14:05 78° WSW 22:15:28 47° S visible
08 May 6.2 23:54:00 10° W 23:54:46 10° W 23:55:15 10° W visible
09 May 4.1 21:25:32 10° NNW 21:30:21 57° ENE 21:32:38 30° SE visible
09 May 5.5 23:07:57 10° NW 23:11:30 20° W 23:12:26 19° WSW visible
10 May 4.9 20:42:03 10° N 20:46:28 32° ENE 20:49:49 15° ESE visible
10 May 4.8 22:23:36 10° NW 22:28:06 38° WSW 22:29:38 30° SW visible
11 May 5.6 19:58:50 10° N 20:02:24 20° NE 20:05:59 10° E visible
11 May 3.9 21:39:39 10° NNW 21:44:31 72° WSW 21:46:51 31° S visible
12 May 4.0 20:55:58 10° NNW 21:00:49 62° ENE 21:04:06 21° SE visible
12 May 5.8 22:38:33 10° NW 22:41:54 19° W 22:43:54 15° SW visible
13 May 4.8 20:12:28 10° N 20:16:57 35° ENE 20:21:22 10° ESE visible
13 May 5.0 21:54:06 10° NW 21:58:30 35° WSW 22:01:11 20° SSW visible
14 May 4.1 21:10:07 10° NNW 21:14:58 66° WSW 21:18:29 19° S visible
